Regional Weather Roundup
Issued by NWS Grand Forks, ND

Home | Current Version | Previous Version | Graphics & Text | Print | Product List | Glossary On
Versions: 1 2 3 4 5 6 7 8 9 10 11 12 13 14 15 16 17 18 19 20 21 22 23 24 25 26 27 28 29 30 31 32 33 34 35 36 37 38 39 40 41 42 43 44 45 46 47 48 49 50
000
ASUS43 KFGF 220810
RWRFGF
PRAIRIE TO PINES  WEATHER ROUNDUP
NATIONAL WEATHER SERVICE EASTERN NORTH DAKOTA/GRAND FORKS ND
300 AM CDT TUE MAY 22 2018

 **SATELLITE DATA USED TO AUGMENT SKY COVER AT AUTOMATED STATIONS**
 *****  WEATHER ACROSS EASTERN NORTH DAKOTA  *****

CITY           SKY/WX    TMP DP  RH WIND       PRES   REMARKS
GRAND FORKS    FAIR      54  53  97 S7        29.95R
GRAND FRKS AFB FAIR      55  55 100 S6        29.95R
GRAND FRKS NWS   N/A     56  53  91 S3        29.93R
DEVILS LAKE    FAIR      58  54  86 S8        29.95R
FARGO          FAIR      56  54  93 S8        29.97S
WAHPETON ARPT  FAIR      55  50  82 S5        29.99S
$$

 ***** WEATHER ACROSS CENTRAL AND WESTERN NORTH DAKOTA  *****

CITY           SKY/WX    TMP DP  RH WIND       PRES   REMARKS
BISMARCK       FAIR      53  51  93 E5        29.93F
MINOT          FAIR      62  49  62 S9        29.89S
JAMESTOWN      FAIR      55  53  93 S6        29.95S
MINOT AFB      FAIR      59  49  69 S10       29.87S
GARRISON         N/A     50  47  89 CALM      29.91S
WILLISTON      FAIR      59  44  57 S3        29.87S
DICKINSON      FAIR      52  32  46 S10       29.90S
HETTINGER      FAIR      54  42  64 SE6       29.94F
$$

 *****  OTHER AIRPORT OBSERVATIONS IN OUR AREA  *****

CITY           SKY/WX    TMP DP  RH WIND       PRES   REMARKS
WALHALLA       FAIR      61  55  82 SW7       29.91F
GRAFTON AIRPOR FAIR      52  52 100 S7        29.96R
VALLEY CITY AR FAIR      52  54 100 S8        29.98S FOG
CANDO          FAIR      54  54 100 S6        29.95R
CAVALIER APRT    N/A     57  52  82 S8        29.92S
GWINNER        FOG       50  50 100 CALM      29.97F VSB 0
SHEYENNE NWR     N/A     51  51 100 S2        29.95S
ROLLA          FAIR      54  54 100 S7        29.93R
 ***** THE ABOVE OBSERVATIONS ARE NON NWS ARE NOT QUALITY
       CONTROLLED AND MAY MIS-REPORT RAIN FOR SNOW...
$$

  *****  WEATHER ACROSS NORTHERN MINNESOTA  *****

CITY           SKY/WX    TMP DP  RH WIND       PRES   REMARKS
FLAG ISLAND    FAIR      57  43  58 SW13      29.93S
WARROAD        FAIR      52  45  76 SW6       29.97R
ROSEAU         FAIR      48  43  81 S8        29.96S
HALLOCK        FAIR      52  45  76 S8        29.94S
THF RVR FALLS  FAIR      51  49  92 S7        29.98S
BAUDETTE       FAIR      45  43  93 CALM      29.98R
WASKISH        FAIR      46  43  87 CALM      29.99S
CROOKSTON      FAIR      55  52  88 S8        29.98S
STEPHEN NDAWN    N/A     55  50  82 S9          N/A
GREENBUSH NDAW   N/A     52  48  87 S5          N/A
$$
  *****  WEATHER ACROSS CENTRAL AND WEST MINNESOTA  *****

CITY           SKY/WX    TMP DP  RH WIND       PRES   REMARKS
FOSSTON        FAIR      46  43  87 S5        30.00S
BEMIDJI        FAIR      46  43  89 CALM      30.00S
PARK RAPIDS    CLOUDY    55  44  66 S5        30.00S
ELBOW LAKE     CLOUDY    56  53  89 E5        30.00S
WADENA         CLOUDY    54  45  71 CALM      30.00S
DETROIT LAKES  CLOUDY    54  50  87 SE3       30.01R
MOORHEAD       FAIR      54  52  94 S5        29.99S
FERGUS FALLS   CLOUDY    57  52  82 S5        29.96F
MORRIS MN      CLOUDY    57  57 100 E7        29.98F FOG
STAPLES        CLOUDY    54  45  71 CALM      30.00F
$$
  *****  WEATHER ELSEWHERE ACROSS MINNESOTA  *****

CITY           SKY/WX    TMP DP  RH WIND       PRES   REMARKS
DULUTH         CLOUDY    56  44  64 VRB3      30.01R
INTRNTL FALLS  FAIR      43  40  89 S3        29.98S
ELY            CLOUDY    45  37  76 CALM      30.01S
CLOQUET        CLOUDY    54  43  66 CALM      30.01S
WHEATON        CLOUDY    57  54  88 SE3       30.00F FOG
BRAINERD       CLOUDY    55  45  68 CALM      30.01F
HIBBING        CLOUDY    44  40  85 CALM      30.00F
ALEXANDRIA     CLOUDY    57  47  69 S6        30.01S
SAINT CLOUD    FAIR      48  47  96 CALM      30.01R
MINNEAPOLIS    CLOUDY    59  55  87 S3        30.02R
$$

  *****  WEATHER ACROSS SOUTH DAKOTA  *****

CITY           SKY/WX    TMP DP  RH WIND       PRES   REMARKS
SIOUX FALLS    FAIR      50  50 100 NE3       29.99S FOG
BROOKINGS      FOG       53  52  96 SE6       30.00S VSB 1/4
WATERTOWN      FOG       52  52 100 S5        29.98S VSB 1/4
HURON          FAIR      55  53  93 SE7       29.96S FOG
SISSETON         N/A     58  57  97 S5        29.97F
ABERDEEN       FAIR      50  50 100 SE6       29.96F FOG
MITCHELL       FAIR      55  53  93 SE6       29.96F FOG
PIERRE         FAIR      55  52  89 E6        29.91F
MOBRIDGE       FAIR      56  51  84 E7        29.92R
RAPID CITY     FAIR      55  51  86 CALM      29.90F
$$

  *****  SOME WEATHER IN NEARBY STATES *****

CITY           SKY/WX    TMP DP  RH WIND       PRES   REMARKS
GLASGOW MT     MOCLDY    63  50  62 CALM      29.86S
GREAT FALLS MT CLOUDY    59  51  75 SW8       29.97S
CHEYENNE WY    FAIR      49  46  90 NW5       30.03S
SCOTTSBLUFF NE FAIR      53  53 100 N5        29.94F
OMAHA NE       CLOUDY    63  56  78 SE6       29.98F
DES MOINES IA  FAIR      61  60  97 CALM      29.99F FOG
DAVENPORT IA   CLOUDY    61  57  87 NW8       30.01F FOG
CHICAGO IL     FOG       54  53  97 N3        29.97S VSB 1/2
EAU CLAIRE WI  CLOUDY    54  54 100 E3        30.02R FOG
LA CROSSE WI   CLOUDY    58  56  93 E3        30.00S
$$

  *****  SOME NATIONAL WEATHER *****

CITY           SKY/WX    TMP DP  RH WIND       PRES   REMARKS
LA GUARDIA NY  CLOUDY    65  46  50 S5        30.15F
RALEIGH NC     MOCLDY    68  68 100 CALM      30.11S
ATLANTA GA     CLOUDY    69  65  86 SE7       30.09F
NEW ORLEANS LA FAIR      76  74  93 CALM      29.97F
OKLAHOMA CITY  FAIR      65  63  93 S6        29.98R
ALBUQUERQUE NM MOCLDY    56  48  74 W8        30.03R
SALT LAKE CITY MOCLDY    62  49  62 N7        29.90S
LOS ANGELES CA CLOUDY    60  53  77 SW7       29.89F
BOISE ID       FAIR      59  51  75 SW5       29.87S
SEATTLE WA     FAIR      56  47  71 CALM      30.00R
$$

*** WEATHER ACROSS MANITOBA...SASKATCHEWAN AND ONTARIO ***
                ***ONTARIO***

CITY           SKY/WX    TMP DP  RH WIND       PRES   REMARKS
GERALDTON      CLEAR     48  30  49 SW2       29.93F
THUNDER BAY    PTCLDY    36  34  93 NW3       29.98S
SIOUX LOOKOUT  PTCLDY    43  39  87 CALM      29.93R
TORONTO        LGT RAIN  55  45  67 S3        30.03F
BIG TROUT LK   CLOUDY    37  32  81 NE8       29.96R
PICKLE LAKE    NOT AVBL
DRYDEN         CLEAR     55  39  54 SW8       29.94S
KENORA         CLEAR     54  41  62 SW7       29.95R
$$
                *** MANITOBA***

CITY           SKY/WX    TMP DP  RH WIND       PRES   REMARKS
BRANDON        PTCLDY    59  50  72 SW8       29.87S
DAUPHIN        CLEAR     68  46  45 SW16G24   29.80S
ISLAND LAKE    PTCLDY    48  41  76 NE6       29.90R
PILOT MOUND      N/A     52  45  76 S9          N/A
THE PAS        PTCLDY    59  43  55 NE3       29.82R
THOMPSON       PTCLDY    32  23  69 NE9       30.00R WCI  24
WINNIPEG       PTCLDY    57  45  62 S10       29.89S
LYNN LAKE      CLEAR     37  30  75 E10       29.99R
CHURCHILL      CLOUDY    25  19  80 E8        30.20F WCI  16
GILLAM         MOCLDY    23  19  86 NE12G21   30.11R WCI  12
$$
                ***SASKATCHEWAN***

CITY           SKY/WX    TMP DP  RH WIND       PRES   REMARKS
ESTEVAN        PTCLDY    52  37  58 SW8       29.86R
KINDERSLEY     CLEAR     52  41  66 N10       29.88R
LLOYDMINSTER   CLEAR     52  41  66 NW6       29.87S
PRINCE ALBERT  MOCLDY    50  48  93 CALM      29.83S
REGINA         CLOUDY    63  45  51 W7        29.83R
YORKTON        MOCLDY    59  45  58 N7        29.81R
N. BATTLEFORD  CLEAR     55  45  67 CALM      29.86S
LA RONGE       PTCLDY    55  45  67 NE7       29.85R
SASKATOON      PTCLDY    54  43  66 N7        29.82S
SWIFT CURRENT  CLOUDY    61  46  59 SW12      29.87R
$$
NOTE: THESE ARE AUTOMATED STATIONS WITH LIMITED QUALITY CONTROL
      "FAIR" INDICATES FEW OR NO CLOUDS BELOW 12,000 FEET WITH NO
      SIGNIFICANT WEATHER AND/OR OBSTRUCTIONS TO VISIBILITY.
      SKY/WX - SKY CONDITION AND SIGNIFICANT WEATHER.
      TMP - AIR TEMPERATURE.    DP   - DEWPOINT TEMPERATURE.
      RH  - RELATIVE HUMIDITY.  PRES - PRESSURE.
      HX  - HEAT INDEX.         WCI  - WIND CHILL INDEX.
$



USA.gov is the U.S. government's official web portal to all federal, state and local government web resources and services.